Date String (YYYY-MM-DD hh:mm:ss) UTC,Instrument flags,Ambient pressure (hPa),Sample flow (lpm),Bypass flow (lpm),Sample temperature (°C),Ambient temperature (°C),ASC tube jacket temperature (°C),LED temperature (°C),Box temperature (°C),Sample RH (%),Span deviation,Mass concentration (μg/m³),Mass concentration (μg/m³),Mass concentration (μg/m³)
DateTimeUTC,F1_M11,P_M11,Q1_M11,Q2_M11,T1_M11,T2_M11,T3_M11,T4_M11,T5_M11,U1_M11,ZSPAN_M11,X0_M11,X2_M11,X1_M11
2021-11-29 15:00:00,,0828.2,5.00,0.00,28.6,28.0,00.0,37.6,30.4,11.4,0000.0,0000.89,0000.31,0000.18
2021-11-29 15:01:00,,0828.3,4.99,0.00,28.7,28.0,00.0,37.6,30.4,11.4,0000.0,0000.94,0000.30,0000.18
2021-11-29 15:02:00,,0828.3,5.01,0.00,28.7,28.0,00.0,37.6,30.4,11.4,0000.0,0001.16,0000.31,0000.18
2021-11-29 15:03:00,,0828.2,5.00,0.00,28.7,28.0,00.0,37.6,30.5,11.3,0000.0,0001.12,0000.29,0000.17
2021-11-29 15:04:00,,0828.2,4.99,0.00,28.7,28.0,00.0,37.6,30.5,11.3,0000.0,0001.14,0000.30,0000.17
2021-11-29 15:05:00,,0828.3,4.99,0.00,28.7,28.0,00.0,37.7,30.5,11.2,0000.0,0001.14,0000.30,0000.17
2021-11-29 15:06:00,,0828.2,4.99,0.00,28.7,28.1,00.0,37.7,30.5,11.3,0000.0,0001.10,0000.30,0000.17
2021-11-29 15:07:00,,0828.3,4.99,0.00,28.7,28.1,00.0,37.7,30.5,11.3,0000.0,0000.86,0000.26,0000.17
2021-11-29 15:08:00,,0828.2,5.00,0.00,28.8,28.1,00.0,37.7,30.5,11.3,0000.0,0000.97,0000.30,0000.17
2021-11-29 15:09:00,,0828.4,5.01,0.00,28.8,28.1,00.0,37.7,30.5,11.2,0000.0,0001.06,0000.34,0000.17
2021-11-29 15:10:00,,0828.2,5.00,0.00,28.8,28.2,00.0,37.7,30.6,11.4,0000.0,0001.05,0000.34,0000.17
2021-11-29 15:11:00,,0828.2,5.00,0.00,28.8,28.2,00.0,37.7,30.6,11.4,0000.0,0000.91,0000.33,0000.17
2021-11-29 15:12:00,,0828.3,5.01,0.00,28.9,28.3,00.0,37.7,30.7,11.3,0000.0,0000.84,0000.31,0000.17
2021-11-29 15:13:00,,0828.3,4.99,0.00,28.9,28.3,00.0,37.8,30.7,11.4,0000.0,0000.67,0000.31,0000.17
2021-11-29 15:14:00,,0828.3,5.01,0.00,28.9,28.3,00.0,37.8,30.7,11.3,0000.0,0000.63,0000.30,0000.17
2021-11-29 15:15:00,,0828.2,5.00,0.00,28.9,28.4,00.0,37.8,30.7,11.3,0000.0,0000.59,0000.28,0000.16
2021-11-29 15:16:00,,0828.2,4.99,0.00,29.0,28.4,00.0,37.8,30.8,11.3,0000.0,0000.65,0000.30,0000.16
2021-11-29 15:17:00,,0828.2,5.00,0.00,29.0,28.4,00.0,37.9,30.8,11.3,0000.0,0000.65,0000.30,0000.16
2021-11-29 15:18:00,,0828.2,5.01,0.00,29.0,28.4,00.0,37.9,30.8,11.3,0000.0,0000.73,0000.30,0000.16
2021-11-29 15:19:00,,0828.2,5.00,0.00,29.0,28.4,00.0,37.9,30.8,11.3,0000.0,0000.65,0000.27,0000.16
2021-11-29 15:20:00,,0828.2,5.00,0.00,29.1,28.5,00.0,37.9,30.9,11.2,0000.0,0000.58,0000.23,0000.16
2021-11-29 15:21:00,,0828.2,4.99,0.00,29.1,28.5,00.0,37.9,30.9,11.1,0000.0,0000.60,0000.23,0000.15
2021-11-29 15:22:00,,0828.1,5.00,0.00,29.1,28.5,00.0,38.0,30.9,11.1,0000.0,0000.61,0000.24,0000.15
2021-11-29 15:23:00,,0828.1,4.99,0.00,29.1,28.5,00.0,38.0,30.9,11.3,0000.0,0000.69,0000.25,0000.16
2021-11-29 15:24:00,,0828.1,5.00,0.00,29.2,28.6,00.0,38.0,31.0,11.4,0000.0,0000.95,0000.28,0000.16
2021-11-29 15:25:00,,0828.1,5.00,0.00,29.2,28.6,00.0,38.0,31.0,11.4,0000.0,0001.02,0000.31,0000.17
2021-11-29 15:26:00,,0828.1,5.00,0.00,29.2,28.6,00.0,38.0,31.0,11.3,0000.0,0001.86,0000.32,0000.18
2021-11-29 15:27:00,,0828.1,5.00,0.00,29.2,28.6,00.0,38.1,31.0,11.1,0000.0,0001.99,0000.31,0000.17
2021-11-29 15:28:00,,0828.1,4.99,0.00,29.3,28.7,00.0,38.1,31.0,11.1,0000.0,0002.01,0000.32,0000.17
2021-11-29 15:29:00,,0828.1,5.00,0.00,29.3,28.7,00.0,38.1,31.1,11.0,0000.0,0002.06,0000.36,0000.17
2021-11-29 15:30:00,,0828.1,5.00,0.00,29.3,28.7,00.0,38.1,31.1,11.0,0000.0,0002.11,0000.37,0000.18
2021-11-29 15:31:00,,0828.1,5.01,0.00,29.3,28.7,00.0,38.2,31.2,11.1,0000.0,0002.43,0000.39,0000.18
2021-11-29 15:32:00,,0828.1,5.00,0.00,29.4,28.8,00.0,38.2,31.2,11.1,0000.0,0002.91,0000.40,0000.18
2021-11-29 15:33:00,,0828.1,4.99,0.00,29.4,28.8,00.0,38.2,31.2,11.0,0000.0,0002.90,0000.39,0000.18
2021-11-29 15:34:00,,0828.1,5.00,0.00,29.4,28.8,00.0,38.2,31.2,10.8,0000.0,0002.83,0000.39,0000.18
2021-11-29 15:35:00,,0828.2,5.01,0.00,29.4,28.8,00.0,38.3,31.2,10.7,0000.0,0002.54,0000.37,0000.17
2021-11-29 15:36:00,,0828.2,5.00,0.00,29.4,28.8,00.0,38.3,31.2,10.7,0000.0,0002.51,0000.36,0000.16
2021-11-29 15:37:00,,0828.1,5.00,0.00,29.5,28.8,00.0,38.3,31.2,10.8,0000.0,0001.63,0000.36,0000.16
2021-11-29 15:38:00,,0828.1,5.02,0.00,29.5,28.8,00.0,38.3,31.2,10.8,0000.0,0001.51,0000.36,0000.16
2021-11-29 15:39:00,,0828.2,4.99,0.00,29.5,28.8,00.0,38.3,31.3,10.8,0000.0,0001.47,0000.35,0000.16
2021-11-29 15:40:00,,0828.2,5.01,0.00,29.5,28.8,00.0,38.4,31.2,10.9,0000.0,0002.26,0000.30,0000.16
2021-11-29 15:41:00,,0828.1,5.01,0.00,29.5,28.8,00.0,38.4,31.2,10.9,0000.0,0002.28,0000.30,0000.16
2021-11-29 15:42:00,,0828.1,4.99,0.00,29.5,28.8,00.0,38.4,31.3,10.9,0000.0,0002.20,0000.33,0000.16
2021-11-29 15:43:00,,0828.1,5.00,0.00,29.5,28.8,00.0,38.4,31.3,10.8,0000.0,0001.61,0000.30,0000.16
2021-11-29 15:44:00,,0828.1,5.01,0.00,29.5,28.8,00.0,38.4,31.3,10.7,0000.0,0001.61,0000.30,0000.16
2021-11-29 15:45:00,,0828.2,5.00,0.00,29.5,28.8,00.0,38.4,31.3,10.6,0000.0,0001.60,0000.30,0000.16
2021-11-29 15:46:00,,0828.1,5.00,0.00,29.5,28.8,00.0,38.4,31.3,10.7,0000.0,0001.55,0000.28,0000.16
2021-11-29 15:47:00,,0828.1,5.00,0.00,29.5,28.9,00.0,38.4,31.3,10.7,0000.0,0001.61,0000.29,0000.16
2021-11-29 15:48:00,,0828.1,5.00,0.00,29.6,28.9,00.0,38.5,31.3,10.4,0000.0,0001.60,0000.28,0000.16
2021-11-29 15:49:00,,0828.1,4.99,0.00,29.6,28.9,00.0,38.5,31.3,10.4,0000.0,0001.58,0000.28,0000.15
2021-11-29 15:50:00,,0828.1,4.99,0.00,29.6,28.9,00.0,38.5,31.4,10.5,0000.0,0001.60,0000.28,0000.16
2021-11-29 15:51:00,,0828.1,5.01,0.00,29.6,29.0,00.0,38.5,31.4,10.6,0000.0,0000.85,0000.29,0000.16
2021-11-29 15:52:00,,0828.0,5.00,0.00,29.6,29.0,00.0,38.5,31.4,10.5,0000.0,0000.58,0000.28,0000.16
2021-11-29 15:53:00,,0828.1,4.99,0.00,29.6,29.0,00.0,38.5,31.4,10.4,0000.0,0000.44,0000.24,0000.16
2021-11-29 15:54:00,,0828.1,5.01,0.00,29.6,28.9,00.0,38.5,31.4,10.6,0000.0,0000.39,0000.24,0000.16
2021-11-29 15:55:00,,0828.1,5.01,0.00,29.6,28.9,00.0,38.6,31.4,10.7,0000.0,0000.41,0000.25,0000.17
2021-11-29 15:56:00,,0828.1,5.00,0.00,29.7,28.9,00.0,38.6,31.4,10.7,0000.0,0000.44,0000.27,0000.18
2021-11-29 15:57:00,,0828.1,4.99,0.00,29.7,29.0,00.0,38.6,31.4,10.7,0000.0,0000.54,0000.28,0000.19
2021-11-29 15:58:00,,0828.1,5.00,0.00,29.7,29.0,00.0,38.6,31.4,10.7,0000.0,0000.52,0000.28,0000.19
2021-11-29 15:59:00,,0828.2,4.99,0.00,29.7,29.0,00.0,38.6,31.4,10.7,0000.0,0000.65,0000.32,0000.19
